Cape Girardeau, MO

11:01 PM CST on December 08, 2019 (GMT -0600)
Cape Girardeau Regional

Weather History for KCGI - October, 2019

Change the Weather History Date:

Tuesday, October 1, 2019

  Actual Average Record
Temperature  
Mean Temperature 80 °F 63 °F  
Max Temperature 93 °F 75 °F 93 °F (2019)
Min Temperature 66 °F 50 °F 35 °F (1984)
Degree Days  
Heating Degree Days 0    
Month to date heating degree days  
Since 1 July heating degree days  
Cooling Degree Days 14    
Month to date cooling degree days  
Year to date cooling degree days  
Growing Degree Days 30 (Base 50)    
Moisture  
Dew Point 67 °F    
Average Humidity 67    
Maximum Humidity 93    
Minimum Humidity 38    
Precipitation  
Precipitation 0.00 in 0.11 in 1.99 in (1986)
Month to date precipitation 0.11  
Year to date precipitation 34.44  
Sea Level Pressure  
Sea Level Pressure 30.01 in    
Wind  
Wind Speed 5 mph (SSW)    
Max Wind Speed 15 mph    
Max Gust Speed 23 mph    
Visibility 10 miles    
Events      
T = Trace of Precipitation, MM = Missing Value Source: NWS Daily Summary

Daily Weather History Graph

Daily Weather History Graph

Search for Another Location

Airport or City:

Astronomy

Oct. 01, 2019 Rise Set
Actual Time 6:53 AM CDT 6:41 PM CDT
Civil Twilight 6:27 AM CDT 7:07 PM CDT
Nautical Twilight 5:57 AM CDT 7:37 PM CDT
Astronomical Twilight 5:26 AM CDT 8:08 PM CDT
Moon 10:05 AM CDT (10/1) 8:59 PM CDT (10/1)
Length of Visible Light 12h 40m
Length of Day
11h 48m
Waxing Crescent, 12% of the Moon is Illuminated
Oct 1
Waxing Crescent
Oct 5
First Quarter
Oct 13
Full
Oct 21
Last Quarter
Oct 27
New

Hourly Weather History & Observations

Time (CDT) Temp. Heat Index Dew Point Humidity Pressure Visibility Wind Dir Wind Speed Gust Speed Precip Events Conditions
12:53 AM 73.0 °F - 66.9 °F 81% 30.01 in 10.0 mi Calm Calm - N/A   Clear
1:53 AM 75.9 °F - 66.9 °F 74% 30.00 in 10.0 mi SSW 6.9 mph - N/A   Clear
2:53 AM 71.1 °F - 66.0 °F 84% 30.00 in 10.0 mi West 4.6 mph - N/A   Clear
3:53 AM 69.1 °F - 64.9 °F 87% 30.01 in 10.0 mi NNE 4.6 mph - N/A   Clear
4:53 AM 68.0 °F - 64.9 °F 90% 30.02 in 9.0 mi East 3.5 mph - N/A   Clear
5:53 AM 66.9 °F - 64.9 °F 93% 30.04 in 8.0 mi East 3.5 mph - N/A   Clear
6:53 AM 66.9 °F - 64.0 °F 90% 30.06 in 7.0 mi SE 3.5 mph - N/A   Clear
7:53 AM 70.0 °F - 66.9 °F 90% 30.07 in 7.0 mi Calm Calm - N/A   Clear
8:53 AM 77.0 °F - 69.1 °F 76% 30.07 in 10.0 mi SSE 4.6 mph - N/A   Clear
9:53 AM 82.9 °F 86.5 °F 69.1 °F 63% 30.07 in 10.0 mi SSW 5.8 mph - N/A   Clear
10:53 AM 86.0 °F 89.4 °F 68.0 °F 55% 30.07 in 10.0 mi SSW 6.9 mph - N/A   Clear
11:53 AM 89.1 °F 93.7 °F 69.1 °F 52% 30.06 in 10.0 mi SW 11.5 mph 17.3 mph N/A   Clear
12:53 PM 91.0 °F 94.3 °F 66.9 °F 45% 30.04 in 9.0 mi WSW 13.8 mph 19.6 mph N/A   Partly Cloudy
1:53 PM 93.0 °F 95.9 °F 66.0 °F 41% 30.01 in 10.0 mi SSW 13.8 mph 23.0 mph N/A   Clear
2:53 PM 93.0 °F 94.6 °F 64.0 °F 38% 29.99 in 10.0 mi SW 15.0 mph 21.9 mph N/A   Clear
3:53 PM 93.0 °F 95.0 °F 64.9 °F 39% 29.97 in 10.0 mi SSW 9.2 mph - N/A   Clear
4:53 PM 91.0 °F 93.8 °F 66.0 °F 44% 29.96 in 10.0 mi SSW 8.1 mph - N/A   Clear
5:53 PM 88.0 °F 90.7 °F 66.9 °F 49% 29.96 in 10.0 mi SSW 5.8 mph - N/A   Clear
6:53 PM 82.0 °F 84.5 °F 66.9 °F 60% 29.96 in 10.0 mi South 6.9 mph - N/A   Clear
7:53 PM 79.0 °F - 66.9 °F 66% 29.96 in 10.0 mi South 8.1 mph - N/A   Clear
8:53 PM 78.1 °F - 66.9 °F 68% 29.96 in 10.0 mi South 6.9 mph - N/A   Clear
9:53 PM 79.0 °F - 68.0 °F 69% 29.97 in 10.0 mi SSW 6.9 mph - N/A   Clear
10:53 PM 79.0 °F - 66.9 °F 66% 29.97 in 10.0 mi SSW 8.1 mph - N/A   Clear
11:53 PM 75.0 °F - 66.9 °F 76% 29.96 in 10.0 mi SSW 3.5 mph - N/A   Clear